Hourly Data Report for October 05, 2015

All times are specified in Local Standard Time (LST). Add 1 hour to adjust for Daylight Saving Time where and when it is observed.

FREDERICTON
NEW BRUNSWICK

45°52'08.000" N
66°32'14.000" W
20.70 m
8101505
71700
YFC

Download Data

Hourly Data (October 2015)
Hourly Data Report for October 5, 2015
Temp Definition
°C
Dew Point Temp Definition
°C
Rel Hum Definition
%
Wind Dir Definition
10's deg

Wind Spd Definition
km/h
Visibility Definition
km
Stn Press Definition
kPa
Hmdx Definition


Wind Chill Definition


Weather Definition


TIME
00:00 Legend Double Dagger 2.1 1.7 97 31 4 16.1 102.54     LegendNANA
01:00 Legend Double Dagger 3.9 3.6 98 31 5 16.1 102.55     LegendNANA
02:00 Legend Double Dagger 3.2 3.1 99 31 5 8.1 102.55     Fog
03:00 Legend Double Dagger 1.2 1.1 99   0 9.7 102.55     Fog
04:00 Legend Double Dagger 1.2 1.1 99   0 0.4 102.49     Fog
05:00 Legend Double Dagger 2.3 2.2 99 26 4 0.4 102.45     Fog
06:00 Legend Double Dagger 3.5 3.4 99 LegendMM 4 0.4 102.41     Fog
07:00 Legend Double Dagger 4.3 4.2 99   0 0.4 102.39     Fog
08:00 Legend Double Dagger 4.6 4.5 99   0 0.2 102.34     Fog
09:00 Legend Double Dagger 4.9 4.8 99 LegendMM 4 0.0 102.36     Fog
10:00 Legend Double Dagger 5.9 5.8 99 18 8 0.6 102.34     Fog
11:00 Legend Double Dagger 7.1 6.8 98   0 16.1 102.30     LegendNANA
12:00 Legend Double Dagger 9.3 8.1 92 36 5 16.1 102.20     LegendNANA
13:00 Legend Double Dagger 12.4 8.1 75 LegendMM 5 16.1 102.10     LegendNANA
14:00 Legend Double Dagger 14.0 7.5 64 34 13 16.1 101.97     LegendNANA
15:00 Legend Double Dagger 14.7 7.0 60 LegendMM 4 16.1 101.91     LegendNANA
16:00 Legend Double Dagger 14.1 7.1 63 9 5 16.1 101.86     LegendNANA
17:00 Legend Double Dagger 14.2 7.6 64 LegendMM 4 16.1 101.80     LegendNANA
18:00 Legend Double Dagger 11.8 8.7 81 13 4 16.1 101.79     LegendNANA
19:00 Legend Double Dagger 9.8 8.3 90   0 16.1 101.77     LegendNANA
20:00 Legend Double Dagger 8.7 7.8 94   0 16.1 101.74     LegendNANA
21:00 Legend Double Dagger 7.6 6.7 94 20 5 16.1 101.75     LegendNANA
22:00 Legend Double Dagger 6.7 6.1 96   0 16.1 101.72     LegendNANA
23:00 Legend Double Dagger 5.9 5.3 96 LegendMM 4 16.1 101.66     LegendNANA

Notes on Data Quality.

Legend

  • E = Estimated
  • M = Missing
  • NA = Not Available
  • ‡ = Partner data that is not subject to review by the National Climate Archives
Date modified: